Location: Newark
(43.4306°N, 0.3089°E)
Time: 21:50:59
(UTC+00:00)

S-56A Canister/Altair - Pass Details

Date: 26 August 2019
Orbit: 633 x 2499 km, 38.9° (Epoch: 17 September)

Event Time Altitude Azimuth Distance (km) Brightness Sun altitude
Rises 00:36:34 0° 271° (W) 2,918 - -35.4°
Reaches altitude 10° 00:39:04 10° 257° (WSW) 2,038 - -35.3°
Maximum altitude 00:42:48 25° 201° (SSW) 1,399 - -35.2°
Drops below altitude 10° 00:47:09 10° 147° (SSE) 2,412 - -35.0°
Sets 00:50:24 0° 135° (SE) 3,596 - -34.8°
